#timestamp,LO_Frequency,Hit,StdDev 
1506027615.7,286047000.6,N
1506027635.6,286046998.2,N
1506027655.4,286046998.5,N
1506027675.2,286047001.2,N
1506027695.1,286047001.5,N
1506027696.0,286047001.5,N
1506027715.8,286047004.2,N
1506027735.6,286047005.0,N
1506027755.5,286047007.4,N
1506027775.3,286047009.2,N
1506027795.2,286047008.5,N
1506027815.9,286047007.9,N
1506027835.7,286047004.9,N
1506027855.6,286047004.7,N
1506027875.4,286047004.4,N
1506027895.3,286047001.1,N
1506027915.1,286046998.4,N
1506027916.0,286046998.4,N
1506027935.8,286047002.0,N
1506027955.7,286047001.8,N
1506027975.5,286047004.7,N
1506027995.3,286047005.5,N
1506028015.2,286047002.4,N
1506028035.0,286046999.4,N
1506028035.9,286046999.4,N
1506028055.8,286046996.9,N
1506028075.6,286046998.7,N
1506028095.4,286046998.1,N
1506028115.3,286046998.5,N
1506028135.1,286047000.8,N
1506028155.9,286047000.7,N
1506028175.7,286046999.4,N
1506028195.5,286046997.0,N
1506028215.4,286046996.5,N
1506028235.2,286046999.3,N
1506028255.1,286047000.9,N
1506028256.0,286047000.9,N
1506028275.8,286047003.5,N
1506028295.6,286047005.6,N
1506028315.5,286047005.1,N
1506028335.3,286047005.1,N
1506028355.1,286047003.7,N
1506028375.9,286047003.2,N
1506028395.7,286047002.9,N
1506028415.6,286047004.1,N
1506028435.4,286047000.4,N
1506028455.2,286046998.9,N
1506028475.1,286046997.0,N
1506028476.0,286046997.0,N
1506028495.8,286046998.2,N
1506028515.6,286047002.0,N
1506028535.5,286047005.1,N
1506028555.3,286047007.2,N
1506028575.2,286047004.9,N
1506028595.9,286047001.7,N
1506028615.7,286047005.7,N
1506028635.6,286047003.1,N
1506028655.4,286047004.3,N
1506028675.3,286046999.9,N
1506028695.1,286047000.8,N
1506028696.0,286047000.8,N
1506028715.8,286046999.0,N
1506028735.7,286046997.0,N
1506028755.5,286046998.4,N
1506028775.3,286047000.7,N
1506028795.2,286046998.3,N
1506028815.0,286047000.0,N
1506028815.9,286047000.0,N
1506028835.8,286047004.7,N
1506028855.6,286047005.7,N
1506028875.4,286047005.3,N
1506028895.3,286047005.8,N
1506028915.1,286047001.4,N
1506028935.8,286046998.5,N
1506028955.7,286046997.2,N
1506028975.5,286046997.8,N
1506028995.4,286046999.0,N
1506029015.2,286047004.3,N
1506029035.0,286047003.0,N
1506029035.9,286047003.0,N
1506029055.8,286047003.4,N
1506029075.6,286047005.3,N
1506029095.4,286047006.6,N
1506029115.3,286047008.8,Y
1506029135.1,286047006.0,P
1506029155.9,286047000.2,N
1506029175.7,286047000.3,N
1506029195.5,286047002.2,N
1506029215.4,286047004.0,N
1506029235.2,286047001.8,N
1506029255.1,286047003.8,N
1506029256.0,286047003.8,N
1506029275.8,286047005.8,Y
1506029295.6,286047000.5,P
1506029315.5,286047002.0,N
1506029335.3,286047000.3,N
1506029355.1,286046998.3,N
1506029375.9,286047000.3,N
1506029395.7,286047005.6,Y
1506029415.6,286047004.7,P
1506029435.4,286047007.4,P
1506029455.2,286047005.5,N
1506029475.1,286047004.0,N
1506029476.0,286047004.0,N
1506029495.8,286046998.7,N
1506029515.7,286046997.0,N
1506029535.5,286046993.9,N
1506029555.3,286046994.6,N
1506029575.2,286046993.0,N
1506029595.0,286046993.1,N
1506029595.9,286046993.1,N
1506029615.7,286046994.2,N
1506029635.6,286046990.4,N
1506029655.4,286046991.5,N
1506029675.3,286046989.0,N
1506029695.1,286046992.6,N
1506029696.0,286046992.6,N
1506029715.8,286046996.4,N
1506029735.7,286046996.7,N
1506029755.5,286046996.9,N
1506029775.3,286046997.9,N
1506029795.2,286047001.0,N
1506029815.0,286047000.5,N
1506029815.9,286047000.5,N
1506029835.8,286047000.6,N
1506029855.6,286046996.6,N
1506029875.4,286046994.6,N
1506029895.3,286046993.5,N
1506029915.1,286046995.3,N
1506029935.8,286046997.1,N
1506029955.7,286046999.1,N
1506029975.5,286047000.6,N
1506029995.4,286047001.1,N
1506030015.2,286046998.5,N
1506030035.0,286046996.8,N
1506030035.9,286046996.8,N
1506030055.8,286046993.7,N
1506030075.6,286046993.7,N
1506030095.4,286046998.8,N
1506030115.3,286047000.8,N
1506030135.1,286047001.6,N
1506030155.9,286047003.0,N
1506030175.7,286047006.0,N
1506030195.5,286047001.3,N
1506030215.4,286046999.7,N
1506030235.2,286047002.2,N
1506030255.0,286046999.3,N
1506030256.0,286046999.3,N
1506030275.8,286046994.9,N
1506030295.6,286046995.9,N
1506030315.5,286046996.5,N
1506030335.3,286046998.7,N
1506030355.1,286046998.6,N
1506030375.9,286046998.5,N
1506030395.7,286046998.9,N
1506030415.6,286047001.2,N
1506030435.4,286046998.5,N
1506030455.2,286047000.4,N
1506030475.1,286047002.7,N
1506030476.0,286047002.7,N
1506030495.8,286047004.0,N
1506030515.6,286047001.3,N
1506030535.5,286047004.3,N
1506030555.3,286047001.6,N
1506030575.2,286046998.2,N
1506030595.9,286046997.2,N
1506030615.7,286046997.2,N
1506030635.6,286047001.2,N
1506030655.4,286047001.3,N
1506030675.2,286047002.1,N
1506030695.1,286047002.1,N
1506030696.0,286047002.1,N
1506030715.8,286047000.9,N
1506030735.7,286046997.2,N
1506030755.5,286046999.0,N
1506030775.3,286047002.1,N
1506030795.2,286047004.4,N
1506030815.0,286047001.8,N
1506030815.9,286047001.8,N
1506030835.8,286047001.3,N
1506030855.6,286046999.8,N
1506030875.4,286046998.5,N
1506030895.3,286046997.3,N
1506030915.1,286046996.3,N
1506030935.8,286046993.5,N
1506030955.7,286046994.4,N
1506030975.5,286046992.1,N
1506030995.4,286046996.0,N
1506031015.2,286046997.7,N
1506031035.0,286046998.2,N
1506031035.9,286046998.2,N
1506031055.8,286046999.4,N
1506031075.6,286046999.2,N
1506031095.4,286046997.0,N
1506031115.3,286046994.6,N
1506031135.1,286046996.4,N
1506031155.9,286046997.6,N
1506031175.7,286046999.0,N
1506031195.5,286046998.7,N
